Location: Passau
(48.5830°N, 13.4830°E)
Time: 21:26:12
(UTC+02:00)

S-56A Canister/Altair - Pass Details

Date: 22 May 2024
Orbit: 637 x 2489 km, 38.9° (Epoch: 16 June)

Event Time Altitude Azimuth Distance (km) Brightness Sun altitude
Rises 09:13:23 0° 250° (WSW) 5,521 11.5 36.6°
Reaches altitude 10° 09:17:36 10° 245° (WSW) 4,249 11.0 37.3°
Maximum altitude 09:27:32 44° 179° (S) 1,858 10.1 38.9°
Drops below altitude 10° 09:34:17 10° 110° (ESE) 2,904 11.7 40.0°
Sets 09:36:39 0° 103° (ESE) 3,658 11.9 40.4°
